Voltar ao catálogo

STARLINK-36458

AtivoComunicaçõesVLEO
NORAD 67343·PAYLOAD·🇺🇸 United States

Lançado Jan 9, 2026 de Cape Canaveral Space Force Station

Loading…

Próximas Passagens (próximas 24 horas)

TLE

AtualizadoSource: CelesTrak SupGP

Época: Sep 15, 2026, 02:57 UTC

1 67343C 26003K   26258.12340278 -.00027122  00000+0 -98260-3 0  2585
2 67343  42.9993 237.1077 0001303 267.4448 210.7939 15.27584497    14

Acompanhe STARLINK-36458 em tempo real com AllMySat

Download on the App Store